Home > Weather > Bottrop > Past weeks

Flag for Germany Past Weather in Bottrop, North Rhine-Westphalia, Germany — Yesterday and Last 2 Weeks

Now
72 °F

Scattered clouds.


Feels Like: 72 °F
Forecast: 59 / 74 °F
Wind: 5 mph from Northwest

Location: Duesseldorf

Current Time: Jul 25, 2016 at 10:08:08 PM

Latest Report: Jul 25, 2016 at 9:20 PM


Visibility: N/A

Pressure: 30.09 "Hg

Humidity: 78%

Dew Point: 64 °F

Location of BottropLocation

Past Weather in Bottrop — Graph

°F

Bottrop Temperature Yesterday

Maximum temperature yesterday: 82 °F (at 3:50 PM)
Minimum temperature yesterday: 59 °F (at 5:50 AM)
Average temperature yesterday: 71 °F

High & Low Weather Summary for the Past Weeks

 TemperatureHumidityPressure
High95 °F (Jul 20, 4:20 PM)100% (Jul 13, 3:50 AM)30.30 "Hg (Jul 13, 3:50 AM)
Low46 °F (Jul 14, 4:20 AM)30% (Jul 20, 2:50 PM)29.77 "Hg (Jul 10, 9:20 PM)
Average69 °F71%30.05 "Hg
* Reported Jul 10 9:20 PM — Jul 25 9:20 PM, Bottrop, Weather by CustomWeather, © 2016

Note: Actual official high and low records may vary slightly from our data, if they occured in-between our weather recording intervals... More about our weather records

Advertising

Bottrop Weather History for the Previous 24 Hours

Scroll right to see more
 ConditionsComfort  
Time TempWeatherWind HumidityBarometerVisibility
9:20 PM
Mon, Jul 25
72 °FScattered clouds.5 mph78%30.09 "HgN/A
8:50 PM73 °FScattered clouds.3 mph74%30.09 "HgN/A
8:20 PM73 °FSprinkles. Scattered clouds.13 mph69%30.09 "HgN/A
7:50 PM77 °FPartly sunny.6 mph61%30.07 "HgN/A
7:20 PM77 °FPartly sunny.8 mph61%30.07 "HgN/A
6:50 PM77 °FPartly sunny.8 mph61%30.07 "HgN/A
6:20 PM79 °FPartly sunny.9 mph58%30.07 "HgN/A
5:50 PM79 °FPartly sunny.8 mph58%30.07 "HgN/A
5:20 PM79 °FScattered clouds.9 mph61%30.07 "HgN/A
4:50 PM81 °FScattered clouds.9 mph58%30.07 "HgN/A
4:20 PM79 °FPartly sunny.12 mph58%30.07 "HgN/A
3:50 PM79 °FPartly sunny.14 mph58%30.07 "HgN/A
3:20 PM79 °FPartly sunny.13 mph58%30.07 "HgN/A
2:50 PM79 °FPartly sunny.12 mph58%30.07 "HgN/A
2:20 PM79 °FScattered clouds.8 mph58%30.09 "HgN/A
1:50 PM79 °FScattered clouds.13 mph54%30.09 "HgN/A
1:20 PM79 °FScattered clouds.8 mph58%30.09 "HgN/A
12:50 PM77 °FScattered clouds.8 mph61%30.09 "HgN/A
12:20 PM77 °FScattered clouds.8 mph61%30.09 "HgN/A
11:50 AM75 °FBroken clouds.10 mph65%30.09 "HgN/A
11:20 AM75 °FPartly sunny.6 mph65%30.09 "HgN/A
10:50 AM73 °FBroken clouds.5 mph65%30.09 "HgN/A
10:20 AM73 °FPartly sunny.8 mph65%30.09 "HgN/A
9:50 AM72 °FPartly sunny.8 mph65%30.09 "HgN/A
9:20 AM72 °FPartly sunny.7 mph65%30.09 "HgN/A
8:50 AM70 °FSunny.6 mph73%30.09 "Hg10 mi
8:20 AM68 °FSunny.6 mph83%30.09 "Hg10 mi
7:50 AM68 °FSunny.6 mph83%30.09 "Hg10 mi
7:20 AM66 °FSunny.5 mph88%30.09 "Hg10 mi
6:50 AM66 °FSunny.6 mph88%30.09 "Hg10 mi
6:20 AM64 °FFog.3 mph94%30.09 "HgN/A
5:50 AM64 °FFog.3 mph94%30.09 "HgN/A
5:20 AM64 °FClear.2 mph94%30.09 "Hg10 mi
4:50 AM66 °FClear.3 mph88%30.09 "Hg10 mi
4:20 AM64 °FClear.3 mph94%30.07 "Hg10 mi
3:50 AM66 °FPartly cloudy.3 mph88%30.07 "HgN/A
3:20 AM64 °FPartly cloudy.1 mph94%30.07 "HgN/A
2:50 AM64 °FClear.1 mph94%30.09 "Hg10 mi
2:20 AM64 °FClear.1 mph94%30.07 "Hg10 mi
1:50 AM66 °FClear.1 mph88%30.07 "Hg10 mi
1:20 AM66 °FClear.1 mph94%30.09 "Hg10 mi
12:50 AM68 °FClear.No wind83%30.07 "Hg10 mi
12:20 AM66 °FClear.1 mph88%30.09 "Hg10 mi
11:50 PM
Sun, Jul 24
68 °FClear.No wind88%30.09 "Hg10 mi
11:20 PM68 °FPassing clouds.3 mph88%30.09 "HgN/A
10:50 PM70 °FPassing clouds.3 mph83%30.09 "HgN/A
10:20 PM70 °FSunny.3 mph83%30.07 "Hg10 mi
Weather by CustomWeather, © 2016

See weather overviewHow to use our weather pages